Time,TemperatureF,DewpointF,PressureIn,WindDirection,WindDirectionDegrees,WindSpeedMPH,WindSpeedGustMPH,Humidity,HourlyPrecipIn,Conditions,Clouds,dailyrainin,SoftwareType,DateUTC
2013-02-22 00:00:00,15.1,10.5,30.05,SSE,159,6.0,10.0,82,0.00,,,0.00,VWS V14.01,2013-02-22 06:00:00,
2013-02-22 00:05:00,15.2,10.6,30.05,SSE,156,6.0,9.0,82,0.00,,,0.00,VWS V14.01,2013-02-22 06:05:00,
2013-02-22 00:10:00,15.1,10.5,30.04,SSE,159,5.0,9.0,82,0.00,,,0.00,VWS V14.01,2013-02-22 06:10:00,
2013-02-22 00:15:00,15.0,10.4,30.04,SSE,165,9.0,9.0,82,0.00,,,0.00,VWS V14.01,2013-02-22 06:15:00,
2013-02-22 00:20:00,15.0,10.4,30.04,SSE,165,9.0,11.0,82,0.00,,,0.00,VWS V14.01,2013-02-22 06:20:00,
2013-02-22 00:25:00,14.9,10.6,30.04,SSE,158,6.0,11.0,83,0.00,,,0.00,VWS V14.01,2013-02-22 06:25:00,
2013-02-22 00:30:00,14.8,10.5,30.03,SSE,160,7.0,11.0,83,0.00,,,0.00,VWS V14.01,2013-02-22 06:30:00,
2013-02-22 00:35:00,14.7,10.4,30.03,SSE,159,6.0,7.0,83,0.00,,,0.00,VWS V14.01,2013-02-22 06:35:00,
2013-02-22 00:40:00,14.6,10.3,30.03,South,171,5.0,8.0,83,0.00,,,0.00,VWS V14.01,2013-02-22 06:40:00,
2013-02-22 00:45:00,14.6,10.3,30.03,SSE,157,6.0,9.0,83,0.00,,,0.00,VWS V14.01,2013-02-22 06:45:00,
2013-02-22 00:50:00,14.7,10.7,30.03,SSE,159,5.0,8.0,84,0.00,,,0.00,VWS V14.01,2013-02-22 06:50:00,
2013-02-22 00:55:00,14.7,10.7,30.03,SSE,160,4.0,8.0,84,0.00,,,0.00,VWS V14.01,2013-02-22 06:55:00,
2013-02-22 01:00:00,14.8,10.8,30.03,SSE,157,5.0,8.0,84,0.00,,,0.00,VWS V14.01,2013-02-22 07:00:00,
2013-02-22 01:05:00,14.8,10.8,30.03,SSE,155,4.0,6.0,84,0.00,,,0.00,VWS V14.01,2013-02-22 07:05:00,
2013-02-22 01:10:00,14.8,10.8,30.03,SE,135,3.0,6.0,84,0.00,,,0.00,VWS V14.01,2013-02-22 07:10:00,
2013-02-22 01:15:00,14.8,10.8,30.03,SE,134,5.0,7.0,84,0.00,,,0.00,VWS V14.01,2013-02-22 07:15:00,
2013-02-22 01:20:00,14.8,10.8,30.03,SSE,147,5.0,9.0,84,0.00,,,0.00,VWS V14.01,2013-02-22 07:20:00,
2013-02-22 01:25:00,14.7,10.4,30.03,SE,135,5.0,9.0,83,0.00,,,0.00,VWS V14.01,2013-02-22 07:25:00,
2013-02-22 01:30:00,14.4,10.1,30.03,SE,130,3.0,9.0,83,0.00,,,0.00,VWS V14.01,2013-02-22 07:30:00,
2013-02-22 01:35:00,13.8,9.5,30.03,ESE,123,7.0,7.0,83,0.00,,,0.00,VWS V14.01,2013-02-22 07:35:00,
2013-02-22 01:40:00,13.2,8.9,30.03,SE,125,4.0,9.0,83,0.00,,,0.00,VWS V14.01,2013-02-22 07:40:00,
2013-02-22 01:45:00,12.9,8.9,30.03,SE,131,6.0,9.0,84,0.00,,,0.00,VWS V14.01,2013-02-22 07:45:00,
2013-02-22 01:50:00,12.7,8.7,30.03,SE,128,1.0,7.0,84,0.00,,,0.00,VWS V14.01,2013-02-22 07:50:00,
2013-02-22 01:55:00,12.5,8.5,30.03,SE,128,4.0,8.0,84,0.00,,,0.00,VWS V14.01,2013-02-22 07:55:00,
2013-02-22 02:00:00,12.3,8.6,30.03,SE,131,4.0,8.0,85,0.00,,,0.00,VWS V14.01,2013-02-22 08:00:00,
2013-02-22 02:05:00,12.3,8.6,30.03,SE,133,5.0,7.0,85,0.00,,,0.00,VWS V14.01,2013-02-22 08:05:00,
2013-02-22 02:10:00,12.2,8.5,30.03,SE,138,4.0,8.0,85,0.00,,,0.00,VWS V14.01,2013-02-22 08:10:00,
2013-02-22 02:15:00,12.0,8.0,30.03,SE,130,7.0,9.0,84,0.00,,,0.00,VWS V14.01,2013-02-22 08:15:00,
2013-02-22 02:20:00,11.9,8.2,30.02,SE,143,6.0,10.0,85,0.00,,,0.00,VWS V14.01,2013-02-22 08:20:00,
2013-02-22 02:25:00,11.9,8.2,30.02,SE,136,5.0,10.0,85,0.00,,,0.00,VWS V14.01,2013-02-22 08:25:00,
2013-02-22 02:30:00,11.9,8.2,30.03,SE,138,8.0,10.0,85,0.00,,,0.00,VWS V14.01,2013-02-22 08:30:00,
2013-02-22 02:35:00,11.9,8.2,30.02,SE,141,6.0,9.0,85,0.00,,,0.00,VWS V14.01,2013-02-22 08:35:00,
2013-02-22 02:40:00,12.0,8.3,30.02,SSE,148,3.0,9.0,85,0.00,,,0.00,VWS V14.01,2013-02-22 08:40:00,
2013-02-22 02:45:00,11.9,8.2,30.02,SE,140,4.0,9.0,85,0.00,,,0.00,VWS V14.01,2013-02-22 08:45:00,
2013-02-22 02:50:00,11.9,8.2,30.02,SE,130,3.0,6.0,85,0.00,,,0.00,VWS V14.01,2013-02-22 08:50:00,
2013-02-22 02:54:00,11.9,8.2,30.02,ESE,121,2.0,6.0,85,0.00,,,0.00,VWS V14.01,2013-02-22 08:54:00,
2013-02-22 02:59:00,12.1,8.4,30.01,ESE,122,2.0,6.0,85,0.00,,,0.00,VWS V14.01,2013-02-22 08:59:00,
2013-02-22 03:00:00,12.1,8.4,30.01,ESE,122,4.0,6.0,85,0.00,,,0.00,VWS V14.01,2013-02-22 09:00:00,
2013-02-22 03:05:00,12.2,8.5,30.01,ESE,123,3.0,5.0,85,0.00,,,0.00,VWS V14.01,2013-02-22 09:05:00,
2013-02-22 03:10:00,12.2,8.5,30.01,SE,127,2.0,6.0,85,0.00,,,0.00,VWS V14.01,2013-02-22 09:10:00,
2013-02-22 03:15:00,12.2,8.5,30.01,SE,127,0.0,6.0,85,0.00,,,0.00,VWS V14.01,2013-02-22 09:15:00,
2013-02-22 03:20:00,12.2,8.5,30.00,SE,127,0.0,1.0,85,0.00,,,0.00,VWS V14.01,2013-02-22 09:20:00,
2013-02-22 03:25:00,12.1,8.4,30.00,SE,127,1.0,1.0,85,0.00,,,0.00,VWS V14.01,2013-02-22 09:25:00,
2013-02-22 03:30:00,12.2,8.7,30.00,SE,127,3.0,3.0,86,0.00,,,0.00,VWS V14.01,2013-02-22 09:30:00,
2013-02-22 03:35:00,12.3,8.8,30.00,SE,127,0.0,2.0,86,0.00,,,0.00,VWS V14.01,2013-02-22 09:35:00,
2013-02-22 03:40:00,12.4,8.9,30.00,SE,127,1.0,3.0,86,0.00,,,0.00,VWS V14.01,2013-02-22 09:40:00,
2013-02-22 03:45:00,12.5,9.0,30.00,SE,127,0.0,3.0,86,0.00,,,0.00,VWS V14.01,2013-02-22 09:45:00,
2013-02-22 03:50:00,12.3,8.6,30.00,SE,127,3.0,3.0,85,0.00,,,0.00,VWS V14.01,2013-02-22 09:50:00,
2013-02-22 03:55:00,12.1,8.4,30.00,SE,128,6.0,6.0,85,0.00,,,0.00,VWS V14.01,2013-02-22 09:55:00,
2013-02-22 04:00:00,11.9,8.2,30.00,SE,133,4.0,9.0,85,0.00,,,0.00,VWS V14.01,2013-02-22 10:00:00,
2013-02-22 04:05:00,12.1,8.6,30.00,SSE,153,3.0,8.0,86,0.00,,,0.00,VWS V14.01,2013-02-22 10:05:00,
2013-02-22 04:10:00,12.2,8.7,30.00,SE,138,2.0,8.0,86,0.00,,,0.00,VWS V14.01,2013-02-22 10:10:00,
2013-02-22 04:15:00,12.2,8.7,30.00,SE,139,5.0,8.0,86,0.00,,,0.00,VWS V14.01,2013-02-22 10:15:00,
2013-02-22 04:20:00,12.2,8.7,29.99,SE,134,4.0,6.0,86,0.00,,,0.00,VWS V14.01,2013-02-22 10:20:00,
2013-02-22 04:25:00,12.2,8.7,30.00,SE,131,3.0,7.0,86,0.00,,,0.00,VWS V14.01,2013-02-22 10:25:00,
2013-02-22 04:30:00,12.1,8.4,30.00,SE,132,1.0,8.0,85,0.00,,,0.00,VWS V14.01,2013-02-22 10:30:00,
2013-02-22 04:35:00,12.1,8.4,29.99,ESE,121,5.0,8.0,85,0.00,,,0.00,VWS V14.01,2013-02-22 10:35:00,
2013-02-22 04:40:00,12.1,8.6,29.99,SE,130,6.0,10.0,86,0.00,,,0.00,VWS V14.01,2013-02-22 10:40:00,
2013-02-22 04:44:00,12.2,8.7,29.99,SE,142,5.0,11.0,86,0.00,,,0.00,VWS V14.01,2013-02-22 10:44:00,
2013-02-22 04:45:00,12.3,8.8,29.99,SE,143,5.0,11.0,86,0.00,,,0.00,VWS V14.01,2013-02-22 10:45:00,
2013-02-22 04:50:00,12.6,9.1,29.99,SE,136,5.0,9.0,86,0.00,,,0.00,VWS V14.01,2013-02-22 10:50:00,
2013-02-22 04:55:00,12.8,9.6,29.99,SE,137,3.0,9.0,87,0.00,,,0.00,VWS V14.01,2013-02-22 10:55:00,
2013-02-22 05:00:00,13.0,9.8,29.99,SE,137,2.0,9.0,87,0.00,,,0.00,VWS V14.01,2013-02-22 11:00:00,
2013-02-22 05:05:00,13.2,10.0,29.99,SE,137,4.0,5.0,87,0.00,,,0.00,VWS V14.01,2013-02-22 11:05:00,
2013-02-22 05:10:00,13.3,10.1,29.99,SE,137,0.0,5.0,87,0.00,,,0.00,VWS V14.01,2013-02-22 11:10:00,
2013-02-22 05:15:00,13.4,10.2,29.98,SE,137,4.0,5.0,87,0.00,,,0.00,VWS V14.01,2013-02-22 11:15:00,
2013-02-22 05:20:00,13.4,10.2,29.98,SE,135,3.0,7.0,87,0.00,,,0.00,VWS V14.01,2013-02-22 11:20:00,
2013-02-22 05:25:00,13.5,10.3,29.99,SE,134,2.0,7.0,87,0.00,,,0.00,VWS V14.01,2013-02-22 11:25:00,
2013-02-22 05:30:00,13.6,10.4,29.99,SE,132,1.0,7.0,87,0.00,,,0.00,VWS V14.01,2013-02-22 11:30:00,
2013-02-22 05:35:00,13.4,10.2,29.98,ESE,117,4.0,7.0,87,0.00,,,0.00,VWS V14.01,2013-02-22 11:35:00,
2013-02-22 05:40:00,13.5,10.3,29.99,ESE,113,4.0,7.0,87,0.00,,,0.00,VWS V14.01,2013-02-22 11:40:00,
2013-02-22 05:45:00,13.5,10.3,29.98,ESE,113,4.0,7.0,87,0.00,,,0.00,VWS V14.01,2013-02-22 11:45:00,
2013-02-22 05:50:00,13.4,10.2,29.98,ESE,113,4.0,4.0,87,0.00,,,0.00,VWS V14.01,2013-02-22 11:50:00,
2013-02-22 05:55:00,13.2,10.0,29.98,ESE,113,2.0,5.0,87,0.00,,,0.00,VWS V14.01,2013-02-22 11:55:00,
2013-02-22 06:00:00,13.1,9.9,29.98,ESE,113,3.0,5.0,87,0.00,,,0.00,VWS V14.01,2013-02-22 12:00:00,
2013-02-22 06:05:00,13.2,10.2,29.98,SE,124,3.0,7.0,88,0.00,,,0.00,VWS V14.01,2013-02-22 12:05:00,
2013-02-22 06:10:00,13.4,10.4,29.98,SE,125,3.0,7.0,88,0.00,,,0.00,VWS V14.01,2013-02-22 12:10:00,
2013-02-22 06:15:00,13.5,10.5,29.98,SE,125,0.0,7.0,88,0.00,,,0.00,VWS V14.01,2013-02-22 12:15:00,
2013-02-22 06:20:00,13.5,10.5,29.98,SE,125,0.0,0.0,88,0.00,,,0.00,VWS V14.01,2013-02-22 12:20:00,
2013-02-22 06:25:00,13.4,10.4,29.98,SE,125,2.0,3.0,88,0.00,,,0.00,VWS V14.01,2013-02-22 12:25:00,
2013-02-22 06:30:00,13.3,10.3,29.98,SE,125,1.0,4.0,88,0.00,,,0.00,VWS V14.01,2013-02-22 12:30:00,
2013-02-22 06:35:00,13.2,10.2,29.98,SE,125,1.0,5.0,88,0.00,,,0.00,VWS V14.01,2013-02-22 12:35:00,
2013-02-22 06:40:00,13.2,10.2,29.99,SE,128,3.0,7.0,88,0.00,,,0.00,VWS V14.01,2013-02-22 12:40:00,
2013-02-22 06:45:00,13.2,10.0,29.99,SE,124,3.0,7.0,87,0.00,,,0.00,VWS V14.01,2013-02-22 12:45:00,
2013-02-22 06:50:00,13.1,9.9,29.99,SE,130,6.0,7.0,87,0.00,,,0.00,VWS V14.01,2013-02-22 12:50:00,
2013-02-22 06:55:00,13.2,10.0,29.98,SE,135,2.0,10.0,87,0.00,,,0.00,VWS V14.01,2013-02-22 12:55:00,
2013-02-22 07:00:00,13.3,10.1,29.98,SE,137,11.0,11.0,87,0.00,,,0.00,VWS V14.01,2013-02-22 13:00:00,
2013-02-22 07:05:00,13.3,10.1,29.98,SE,128,4.0,9.0,87,0.00,,,0.00,VWS V14.01,2013-02-22 13:05:00,
2013-02-22 07:10:00,13.3,10.1,29.98,SE,130,5.0,9.0,87,0.00,,,0.00,VWS V14.01,2013-02-22 13:10:00,
2013-02-22 07:15:00,13.4,10.2,29.98,SE,135,7.0,9.0,87,0.00,,,0.00,VWS V14.01,2013-02-22 13:15:00,
2013-02-22 07:20:00,13.5,10.3,29.97,SE,130,3.0,9.0,87,0.00,,,0.00,VWS V14.01,2013-02-22 13:20:00,
2013-02-22 07:25:00,13.5,10.3,29.97,SE,130,5.0,9.0,87,0.00,,,0.00,VWS V14.01,2013-02-22 13:25:00,
2013-02-22 07:30:00,13.5,10.3,29.97,SE,133,3.0,9.0,87,0.00,,,0.00,VWS V14.01,2013-02-22 13:30:00,
2013-02-22 07:34:00,13.5,10.3,29.97,SE,141,3.0,6.0,87,0.00,,,0.00,VWS V14.01,2013-02-22 13:34:00,
2013-02-22 07:39:00,13.5,10.3,29.97,SE,139,5.0,6.0,87,0.00,,,0.00,VWS V14.01,2013-02-22 13:39:00,
2013-02-22 07:44:00,13.6,10.4,29.97,SE,138,2.0,6.0,87,0.00,,,0.00,VWS V14.01,2013-02-22 13:44:00,
2013-02-22 07:45:00,13.6,10.4,29.97,SE,138,5.0,6.0,87,0.00,,,0.00,VWS V14.01,2013-02-22 13:45:00,
2013-02-22 07:49:00,13.6,10.4,29.97,SE,138,4.0,5.0,87,0.00,,,0.00,VWS V14.01,2013-02-22 13:49:00,
2013-02-22 07:54:00,13.7,10.5,29.97,SE,138,6.0,6.0,87,0.00,,,0.00,VWS V14.01,2013-02-22 13:54:00,
2013-02-22 07:59:00,13.8,10.6,29.97,SE,138,4.0,6.0,87,0.00,,,0.00,VWS V14.01,2013-02-22 13:59:00,
2013-02-22 08:00:00,13.8,10.6,29.97,SE,138,1.0,6.0,87,0.00,,,0.00,VWS V14.01,2013-02-22 14:00:00,
2013-02-22 08:04:00,13.9,10.7,29.97,SE,138,2.0,5.0,87,0.00,,,0.00,VWS V14.01,2013-02-22 14:04:00,
2013-02-22 08:09:00,13.9,10.7,29.97,SE,138,4.0,6.0,87,0.00,,,0.00,VWS V14.01,2013-02-22 14:09:00,
2013-02-22 08:14:00,14.0,10.8,29.98,SE,138,2.0,6.0,87,0.00,,,0.00,VWS V14.01,2013-02-22 14:14:00,
2013-02-22 08:15:00,13.9,10.7,29.98,SE,138,2.0,6.0,87,0.00,,,0.00,VWS V14.01,2013-02-22 14:15:00,
2013-02-22 08:19:00,14.0,10.8,29.98,SE,138,3.0,4.0,87,0.00,,,0.00,VWS V14.01,2013-02-22 14:19:00,
2013-02-22 08:24:00,14.1,10.9,29.97,SE,139,3.0,4.0,87,0.00,,,0.00,VWS V14.01,2013-02-22 14:24:00,
2013-02-22 08:29:00,14.3,11.1,29.97,SE,144,4.0,6.0,87,0.00,,,0.00,VWS V14.01,2013-02-22 14:29:00,
2013-02-22 08:30:00,14.3,11.1,29.97,SE,144,3.0,6.0,87,0.00,,,0.00,VWS V14.01,2013-02-22 14:30:00,
2013-02-22 08:34:00,14.4,11.2,29.97,SE,144,3.0,5.0,87,0.00,,,0.00,VWS V14.01,2013-02-22 14:34:00,
2013-02-22 08:39:00,14.6,11.1,29.97,SSE,154,4.0,8.0,86,0.00,,,0.00,VWS V14.01,2013-02-22 14:39:00,
2013-02-22 08:44:00,14.7,11.2,29.96,SSE,155,10.0,10.0,86,0.00,,,0.00,VWS V14.01,2013-02-22 14:44:00,
2013-02-22 08:45:00,14.7,11.2,29.96,SSE,161,7.0,10.0,86,0.00,,,0.00,VWS V14.01,2013-02-22 14:45:00,
2013-02-22 08:49:00,14.7,11.2,29.96,SSE,159,5.0,10.0,86,0.00,,,0.00,VWS V14.01,2013-02-22 14:49:00,
2013-02-22 08:54:00,14.8,11.3,29.96,SSE,161,8.0,12.0,86,0.00,,,0.00,VWS V14.01,2013-02-22 14:54:00,
2013-02-22 08:59:00,15.0,11.2,29.96,SSE,163,9.0,12.0,85,0.00,,,0.00,VWS V14.01,2013-02-22 14:59:00,
2013-02-22 09:00:00,15.0,11.2,29.96,SSE,163,8.0,12.0,85,0.00,,,0.00,VWS V14.01,2013-02-22 15:00:00,
2013-02-22 09:04:00,15.0,11.2,29.96,SSE,151,5.0,12.0,85,0.00,,,0.00,VWS V14.01,2013-02-22 15:04:00,
2013-02-22 09:09:00,15.2,11.4,29.96,SSE,157,9.0,12.0,85,0.00,,,0.00,VWS V14.01,2013-02-22 15:09:00,
2013-02-22 09:14:00,15.4,11.6,29.96,SSE,163,11.0,13.0,85,0.00,,,0.00,VWS V14.01,2013-02-22 15:14:00,
2013-02-22 09:15:00,15.4,11.6,29.96,South,169,7.0,13.0,85,0.00,,,0.00,VWS V14.01,2013-02-22 15:15:00,
2013-02-22 09:19:00,15.6,11.8,29.96,South,171,12.0,13.0,85,0.00,,,0.00,VWS V14.01,2013-02-22 15:19:00,
2013-02-22 09:24:00,15.8,11.8,29.96,SSE,163,7.0,13.0,84,0.00,,,0.00,VWS V14.01,2013-02-22 15:24:00,
2013-02-22 09:29:00,16.1,12.1,29.96,SSE,161,6.0,13.0,84,0.00,,,0.00,VWS V14.01,2013-02-22 15:29:00,
2013-02-22 09:30:00,16.2,12.1,29.96,SSE,158,7.0,13.0,84,0.00,,,0.00,VWS V14.01,2013-02-22 15:30:00,
2013-02-22 09:34:00,16.2,12.1,29.95,SSE,161,7.0,12.0,84,0.00,,,0.00,VWS V14.01,2013-02-22 15:34:00,
2013-02-22 09:39:00,16.4,12.1,29.95,SSE,158,7.0,12.0,83,0.00,,,0.00,VWS V14.01,2013-02-22 15:39:00,
2013-02-22 09:44:00,16.6,12.3,29.95,SSE,152,8.0,14.0,83,0.00,,,0.00,VWS V14.01,2013-02-22 15:44:00,
2013-02-22 09:45:00,16.6,12.3,29.95,SSE,163,9.0,14.0,83,0.00,,,0.00,VWS V14.01,2013-02-22 15:45:00,
2013-02-22 09:49:00,16.5,11.9,29.95,SSE,151,7.0,12.0,82,0.00,,,0.00,VWS V14.01,2013-02-22 15:49:00,
2013-02-22 09:54:00,16.6,12.0,29.95,SSE,164,8.0,12.0,82,0.00,,,0.00,VWS V14.01,2013-02-22 15:54:00,
2013-02-22 09:59:00,16.5,11.9,29.95,South,171,8.0,13.0,82,0.00,,,0.00,VWS V14.01,2013-02-22 15:59:00,
2013-02-22 10:00:00,16.5,11.9,29.95,South,169,3.0,13.0,82,0.00,,,0.00,VWS V14.01,2013-02-22 16:00:00,
2013-02-22 10:04:00,16.5,11.9,29.95,SSE,162,8.0,8.0,82,0.00,,,0.00,VWS V14.01,2013-02-22 16:04:00,
2013-02-22 10:09:00,16.6,12.3,29.95,SSE,163,9.0,9.0,83,0.00,,,0.00,VWS V14.01,2013-02-22 16:09:00,
2013-02-22 10:14:00,16.8,12.5,29.94,South,178,12.0,12.0,83,0.00,,,0.00,VWS V14.01,2013-02-22 16:14:00,
2013-02-22 10:15:00,16.8,12.5,29.94,South,169,7.0,12.0,83,0.00,,,0.00,VWS V14.01,2013-02-22 16:15:00,
2013-02-22 10:19:00,17.0,12.7,29.94,SSE,162,10.0,10.0,83,0.00,,,0.00,VWS V14.01,2013-02-22 16:19:00,
2013-02-22 10:24:00,17.2,12.6,29.94,SSE,160,5.0,10.0,82,0.00,,,0.00,VWS V14.01,2013-02-22 16:24:00,
2013-02-22 10:29:00,17.1,12.5,29.94,SSE,159,8.0,10.0,82,0.00,,,0.00,VWS V14.01,2013-02-22 16:29:00,
2013-02-22 10:30:00,17.1,12.5,29.94,SSE,161,6.0,10.0,82,0.00,,,0.00,VWS V14.01,2013-02-22 16:30:00,
2013-02-22 10:34:00,17.4,13.1,29.94,South,174,5.0,8.0,83,0.00,,,0.00,VWS V14.01,2013-02-22 16:34:00,
2013-02-22 10:39:00,18.1,13.5,29.94,South,173,5.0,8.0,82,0.00,,,0.00,VWS V14.01,2013-02-22 16:39:00,
2013-02-22 10:44:00,18.3,13.4,29.94,SSE,156,5.0,10.0,81,0.00,,,0.00,VWS V14.01,2013-02-22 16:44:00,
2013-02-22 10:45:00,18.4,13.5,29.94,SSE,165,6.0,10.0,81,0.00,,,0.00,VWS V14.01,2013-02-22 16:45:00,
2013-02-22 10:49:00,18.5,13.6,29.94,SSE,161,9.0,10.0,81,0.00,,,0.00,VWS V14.01,2013-02-22 16:49:00,
2013-02-22 10:54:00,18.5,13.6,29.94,South,171,9.0,11.0,81,0.00,,,0.00,VWS V14.01,2013-02-22 16:54:00,
2013-02-22 10:59:00,18.5,13.6,29.94,South,184,9.0,12.0,81,0.00,,,0.00,VWS V14.01,2013-02-22 16:59:00,
2013-02-22 11:00:00,18.6,13.9,29.94,SSE,163,7.0,12.0,82,0.00,,,0.00,VWS V14.01,2013-02-22 17:00:00,
2013-02-22 11:04:00,18.9,14.2,29.94,South,176,5.0,10.0,82,0.00,,,0.00,VWS V14.01,2013-02-22 17:04:00,
2013-02-22 11:09:00,19.2,14.2,29.93,SSE,157,9.0,14.0,81,0.00,,,0.00,VWS V14.01,2013-02-22 17:09:00,
2013-02-22 11:14:00,19.2,14.2,29.94,South,184,9.0,14.0,81,0.00,,,0.00,VWS V14.01,2013-02-22 17:14:00,
2013-02-22 11:15:00,19.2,14.2,29.94,South,180,8.0,14.0,81,0.00,,,0.00,VWS V14.01,2013-02-22 17:15:00,
2013-02-22 11:19:00,19.3,14.4,29.94,SSE,167,7.0,11.0,81,0.00,,,0.00,VWS V14.01,2013-02-22 17:19:00,
2013-02-22 11:24:00,19.7,14.7,29.93,South,173,6.0,11.0,81,0.00,,,0.00,VWS V14.01,2013-02-22 17:24:00,
2013-02-22 11:29:00,19.8,14.8,29.94,SSW,204,7.0,11.0,81,0.00,,,0.00,VWS V14.01,2013-02-22 17:29:00,
2013-02-22 11:30:00,19.9,14.9,29.94,SSW,192,6.0,11.0,81,0.00,,,0.00,VWS V14.01,2013-02-22 17:30:00,
2013-02-22 11:34:00,20.3,15.3,29.93,SSW,195,5.0,9.0,81,0.00,,,0.00,VWS V14.01,2013-02-22 17:34:00,
2013-02-22 11:39:00,20.7,15.4,29.93,SSW,194,5.0,9.0,80,0.00,,,0.00,VWS V14.01,2013-02-22 17:39:00,
2013-02-22 11:44:00,20.8,15.5,29.94,South,180,6.0,11.0,80,0.00,,,0.00,VWS V14.01,2013-02-22 17:44:00,
2013-02-22 11:45:00,20.8,15.5,29.94,South,169,5.0,11.0,80,0.00,,,0.00,VWS V14.01,2013-02-22 17:45:00,
2013-02-22 11:49:00,20.8,15.5,29.93,South,169,9.0,10.0,80,0.00,,,0.00,VWS V14.01,2013-02-22 17:49:00,
2013-02-22 11:54:00,21.0,15.7,29.93,South,187,7.0,11.0,80,0.00,,,0.00,VWS V14.01,2013-02-22 17:54:00,
2013-02-22 11:59:00,21.3,16.0,29.93,South,175,6.0,12.0,80,0.00,,,0.00,VWS V14.01,2013-02-22 17:59:00,
2013-02-22 12:00:00,21.5,16.2,29.93,South,190,9.0,12.0,80,0.00,,,0.00,VWS V14.01,2013-02-22 18:00:00,
2013-02-22 12:04:00,21.6,16.3,29.93,SSW,201,6.0,11.0,80,0.00,,,0.00,VWS V14.01,2013-02-22 18:04:00,
2013-02-22 12:09:00,21.7,16.4,29.93,SSW,194,6.0,11.0,80,0.00,,,0.00,VWS V14.01,2013-02-22 18:09:00,
2013-02-22 12:14:00,22.0,16.7,29.93,South,184,7.0,11.0,80,0.00,,,0.00,VWS V14.01,2013-02-22 18:14:00,
2013-02-22 12:15:00,22.1,16.8,29.93,SSE,163,5.0,11.0,80,0.00,,,0.00,VWS V14.01,2013-02-22 18:15:00,
2013-02-22 12:19:00,22.4,17.1,29.93,SSE,165,9.0,10.0,80,0.00,,,0.00,VWS V14.01,2013-02-22 18:19:00,
2013-02-22 12:24:00,22.2,16.6,29.93,South,188,5.0,11.0,79,0.00,,,0.00,VWS V14.01,2013-02-22 18:24:00,
2013-02-22 12:29:00,22.7,17.1,29.93,SSE,168,5.0,11.0,79,0.00,,,0.00,VWS V14.01,2013-02-22 18:29:00,
2013-02-22 12:30:00,22.8,17.2,29.93,SSE,167,8.0,11.0,79,0.00,,,0.00,VWS V14.01,2013-02-22 18:30:00,
2013-02-22 12:34:00,22.9,17.0,29.93,SSW,197,4.0,8.0,78,0.00,,,0.00,VWS V14.01,2013-02-22 18:34:00,
2013-02-22 12:39:00,23.0,17.1,29.92,South,181,4.0,9.0,78,0.00,,,0.00,VWS V14.01,2013-02-22 18:39:00,
2013-02-22 12:44:00,23.1,17.2,29.92,SSW,203,6.0,9.0,78,0.00,,,0.00,VWS V14.01,2013-02-22 18:44:00,
2013-02-22 12:45:00,23.2,17.3,29.92,SSW,200,7.0,9.0,78,0.00,,,0.00,VWS V14.01,2013-02-22 18:45:00,
2013-02-22 12:49:00,23.3,17.7,29.92,SSW,193,3.0,7.0,79,0.00,,,0.00,VWS V14.01,2013-02-22 18:49:00,
2013-02-22 12:54:00,23.7,17.8,29.91,South,184,6.0,8.0,78,0.00,,,0.00,VWS V14.01,2013-02-22 18:54:00,
2013-02-22 12:59:00,23.9,18.0,29.91,SSW,193,4.0,8.0,78,0.00,,,0.00,VWS V14.01,2013-02-22 18:59:00,
2013-02-22 13:00:00,24.0,18.4,29.91,SSW,200,2.0,8.0,79,0.00,,,0.00,VWS V14.01,2013-02-22 19:00:00,
2013-02-22 13:04:00,24.3,18.4,29.91,SSW,192,4.0,7.0,78,0.00,,,0.00,VWS V14.01,2013-02-22 19:04:00,
2013-02-22 13:09:00,24.5,18.5,29.90,South,187,2.0,7.0,78,0.00,,,0.00,VWS V14.01,2013-02-22 19:09:00,
2013-02-22 13:14:00,24.4,18.5,29.90,South,184,5.0,7.0,78,0.00,,,0.00,VWS V14.01,2013-02-22 19:14:00,
2013-02-22 13:15:00,24.4,18.5,29.90,South,171,3.0,7.0,78,0.00,,,0.00,VWS V14.01,2013-02-22 19:15:00,
2013-02-22 13:19:00,24.4,18.5,29.90,South,178,6.0,8.0,78,0.00,,,0.00,VWS V14.01,2013-02-22 19:19:00,
2013-02-22 13:24:00,24.4,18.5,29.90,SSE,157,4.0,8.0,78,0.00,,,0.00,VWS V14.01,2013-02-22 19:24:00,
2013-02-22 13:29:00,24.5,18.5,29.90,SE,142,3.0,8.0,78,0.00,,,0.00,VWS V14.01,2013-02-22 19:29:00,
2013-02-22 13:30:00,24.5,18.5,29.90,SE,143,3.0,8.0,78,0.00,,,0.00,VWS V14.01,2013-02-22 19:30:00,
2013-02-22 13:34:00,24.4,18.5,29.89,SE,134,5.0,6.0,78,0.00,,,0.00,VWS V14.01,2013-02-22 19:34:00,
2013-02-22 13:39:00,24.4,18.5,29.89,SE,144,5.0,7.0,78,0.00,,,0.00,VWS V14.01,2013-02-22 19:39:00,
2013-02-22 13:44:00,24.3,18.4,29.89,SSE,152,4.0,8.0,78,0.00,,,0.00,VWS V14.01,2013-02-22 19:44:00,
2013-02-22 13:45:00,24.4,18.5,29.89,SSE,152,4.0,8.0,78,0.00,,,0.00,VWS V14.01,2013-02-22 19:45:00,
2013-02-22 13:49:00,24.5,18.5,29.89,SSE,147,6.0,8.0,78,0.00,,,0.00,VWS V14.01,2013-02-22 19:49:00,
2013-02-22 13:54:00,24.6,18.6,29.88,SSE,150,2.0,9.0,78,0.00,,,0.00,VWS V14.01,2013-02-22 19:54:00,
2013-02-22 13:59:00,24.9,18.9,29.88,SSE,155,3.0,9.0,78,0.00,,,0.00,VWS V14.01,2013-02-22 19:59:00,
2013-02-22 14:00:00,25.0,19.0,29.88,SE,130,3.0,9.0,78,0.00,,,0.00,VWS V14.01,2013-02-22 20:00:00,
2013-02-22 14:04:00,25.0,19.0,29.88,SE,132,3.0,7.0,78,0.00,,,0.00,VWS V14.01,2013-02-22 20:04:00,
2013-02-22 14:09:00,25.1,19.1,29.88,SE,142,3.0,8.0,78,0.00,,,0.00,VWS V14.01,2013-02-22 20:09:00,
2013-02-22 14:14:00,25.0,18.7,29.88,SSE,149,4.0,8.0,77,0.00,,,0.00,VWS V14.01,2013-02-22 20:14:00,
2013-02-22 14:15:00,25.0,19.0,29.88,SE,142,5.0,8.0,78,0.00,,,0.00,VWS V14.01,2013-02-22 20:15:00,
2013-02-22 14:19:00,24.9,18.6,29.87,SE,135,6.0,8.0,77,0.00,,,0.00,VWS V14.01,2013-02-22 20:19:00,
2013-02-22 14:24:00,24.9,18.9,29.87,SE,144,4.0,8.0,78,0.00,,,0.00,VWS V14.01,2013-02-22 20:24:00,
2013-02-22 14:29:00,24.9,18.9,29.87,SSE,151,4.0,10.0,78,0.00,,,0.00,VWS V14.01,2013-02-22 20:29:00,
2013-02-22 14:30:00,24.9,18.9,29.87,SSE,155,7.0,10.0,78,0.00,,,0.00,VWS V14.01,2013-02-22 20:30:00,
2013-02-22 14:34:00,24.7,18.7,29.87,SSE,153,3.0,8.0,78,0.00,,,0.00,VWS V14.01,2013-02-22 20:34:00,
2013-02-22 14:39:00,24.9,19.2,29.87,SE,137,3.0,8.0,79,0.00,,,0.00,VWS V14.01,2013-02-22 20:39:00,
2013-02-22 14:44:00,24.8,18.8,29.86,SSE,155,4.0,8.0,78,0.00,,,0.00,VWS V14.01,2013-02-22 20:44:00,
2013-02-22 14:45:00,24.9,18.9,29.86,SSE,158,4.0,8.0,78,0.00,,,0.00,VWS V14.01,2013-02-22 20:45:00,
2013-02-22 14:49:00,25.1,19.4,29.86,SSE,151,6.0,7.0,79,0.00,,,0.00,VWS V14.01,2013-02-22 20:49:00,
2013-02-22 14:54:00,24.7,18.4,29.86,SE,138,9.0,10.0,77,0.00,,,0.00,VWS V14.01,2013-02-22 20:54:00,
2013-02-22 14:59:00,24.5,18.5,29.87,SE,145,8.0,10.0,78,0.00,,,0.00,VWS V14.01,2013-02-22 20:59:00,
2013-02-22 15:00:00,24.4,18.5,29.86,SE,132,5.0,10.0,78,0.00,,,0.00,VWS V14.01,2013-02-22 21:00:00,
2013-02-22 15:04:00,24.5,18.5,29.86,SE,131,9.0,10.0,78,0.00,,,0.00,VWS V14.01,2013-02-22 21:04:00,
2013-02-22 15:09:00,24.6,18.9,29.86,SE,129,8.0,10.0,79,0.00,,,0.00,VWS V14.01,2013-02-22 21:09:00,
2013-02-22 15:14:00,24.7,18.7,29.86,SSE,155,7.0,10.0,78,0.00,,,0.00,VWS V14.01,2013-02-22 21:14:00,
2013-02-22 15:15:00,24.6,18.6,29.86,SSE,151,8.0,10.0,78,0.00,,,0.00,VWS V14.01,2013-02-22 21:15:00,
2013-02-22 15:19:00,24.6,18.6,29.85,SSE,161,7.0,10.0,78,0.00,,,0.00,VWS V14.01,2013-02-22 21:19:00,
2013-02-22 15:24:00,24.5,18.5,29.85,SSE,159,8.0,10.0,78,0.00,,,0.00,VWS V14.01,2013-02-22 21:24:00,
2013-02-22 15:29:00,24.5,18.8,29.85,SE,140,6.0,10.0,79,0.00,,,0.00,VWS V14.01,2013-02-22 21:29:00,
2013-02-22 15:30:00,24.6,18.9,29.85,SSE,162,9.0,10.0,79,0.00,,,0.00,VWS V14.01,2013-02-22 21:30:00,
2013-02-22 15:34:00,24.7,19.0,29.85,SE,131,8.0,9.0,79,0.00,,,0.00,VWS V14.01,2013-02-22 21:34:00,
2013-02-22 15:39:00,24.7,18.7,29.85,SE,136,9.0,10.0,78,0.00,,,0.00,VWS V14.01,2013-02-22 21:39:00,
2013-02-22 15:44:00,24.4,18.8,29.85,SE,136,8.0,11.0,79,0.00,,,0.00,VWS V14.01,2013-02-22 21:44:00,
2013-02-22 15:45:00,24.4,18.8,29.85,SE,141,11.0,12.0,79,0.00,,,0.00,VWS V14.01,2013-02-22 21:45:00,
2013-02-22 15:49:00,24.4,18.8,29.84,SE,128,6.0,11.0,79,0.00,,,0.00,VWS V14.01,2013-02-22 21:49:00,
2013-02-22 15:54:00,24.6,18.9,29.84,ESE,112,7.0,15.0,79,0.00,,,0.00,VWS V14.01,2013-02-22 21:54:00,
2013-02-22 15:59:00,24.6,18.9,29.84,SE,135,6.0,15.0,79,0.00,,,0.00,VWS V14.01,2013-02-22 21:59:00,
2013-02-22 16:00:00,24.6,18.9,29.84,ESE,122,9.0,15.0,79,0.00,,,0.00,VWS V14.01,2013-02-22 22:00:00,
2013-02-22 16:04:00,24.6,18.9,29.84,SE,126,12.0,14.0,79,0.00,,,0.00,VWS V14.01,2013-02-22 22:04:00,
2013-02-22 16:09:00,24.5,18.8,29.84,SE,131,7.0,14.0,79,0.00,,,0.00,VWS V14.01,2013-02-22 22:09:00,
2013-02-22 16:14:00,24.5,19.1,29.84,SE,132,8.0,14.0,80,0.00,,,0.00,VWS V14.01,2013-02-22 22:14:00,
2013-02-22 16:15:00,24.5,19.1,29.84,SE,133,9.0,14.0,80,0.00,,,0.00,VWS V14.01,2013-02-22 22:15:00,
2013-02-22 16:19:00,24.5,19.1,29.83,SE,146,8.0,11.0,80,0.00,,,0.00,VWS V14.01,2013-02-22 22:19:00,
2013-02-22 16:24:00,24.4,19.0,29.84,SE,136,8.0,12.0,80,0.00,,,0.00,VWS V14.01,2013-02-22 22:24:00,
2013-02-22 16:29:00,24.3,18.9,29.84,SE,140,11.0,13.0,80,0.00,,,0.00,VWS V14.01,2013-02-22 22:29:00,
2013-02-22 16:30:00,24.3,18.9,29.84,SE,141,9.0,13.0,80,0.00,,,0.00,VWS V14.01,2013-02-22 22:30:00,
2013-02-22 16:34:00,24.3,18.9,29.84,SE,138,6.0,11.0,80,0.00,,,0.00,VWS V14.01,2013-02-22 22:34:00,
2013-02-22 16:39:00,24.1,18.8,29.84,SSE,147,8.0,13.0,80,0.00,,,0.00,VWS V14.01,2013-02-22 22:39:00,
2013-02-22 16:44:00,23.8,18.5,29.84,SE,131,8.0,13.0,80,0.00,,,0.00,VWS V14.01,2013-02-22 22:44:00,
2013-02-22 16:45:00,23.8,18.8,29.84,SE,140,8.0,13.0,81,0.00,,,0.00,VWS V14.01,2013-02-22 22:45:00,
2013-02-22 16:49:00,23.9,18.8,29.84,SSE,159,5.0,9.0,81,0.00,,,0.00,VWS V14.01,2013-02-22 22:49:00,
2013-02-22 16:53:00,23.9,18.5,29.83,SE,143,5.0,9.0,80,0.00,,,0.00,VWS V14.01,2013-02-22 22:53:00,
2013-02-22 16:58:00,23.9,18.5,29.83,SSE,152,7.0,10.0,80,0.00,,,0.00,VWS V14.01,2013-02-22 22:58:00,
2013-02-22 17:00:00,23.8,18.5,29.83,SE,140,7.0,10.0,80,0.00,,,0.00,VWS V14.01,2013-02-22 23:00:00,
2013-02-22 17:03:00,23.8,18.5,29.83,SSE,153,6.0,10.0,80,0.00,,,0.00,VWS V14.01,2013-02-22 23:03:00,
2013-02-22 17:08:00,23.7,18.4,29.83,SSE,155,6.0,11.0,80,0.00,,,0.00,VWS V14.01,2013-02-22 23:08:00,
2013-02-22 17:13:00,23.7,18.6,29.83,SSE,148,6.0,11.0,81,0.00,,,0.00,VWS V14.01,2013-02-22 23:13:00,
2013-02-22 17:15:00,23.6,18.5,29.83,SE,141,11.0,11.0,81,0.00,,,0.00,VWS V14.01,2013-02-22 23:15:00,
2013-02-22 17:18:00,23.6,18.5,29.83,SSE,147,5.0,11.0,81,0.00,,,0.00,VWS V14.01,2013-02-22 23:18:00,
2013-02-22 17:23:00,23.5,18.5,29.82,SSE,157,5.0,11.0,81,0.00,,,0.00,VWS V14.01,2013-02-22 23:23:00,
2013-02-22 17:28:00,23.5,18.5,29.82,SE,145,7.0,13.0,81,0.00,,,0.00,VWS V14.01,2013-02-22 23:28:00,
2013-02-22 17:30:00,23.4,18.4,29.83,SE,134,5.0,13.0,81,0.00,,,0.00,VWS V14.01,2013-02-22 23:30:00,
2013-02-22 17:33:00,23.4,18.4,29.82,SE,128,6.0,10.0,81,0.00,,,0.00,VWS V14.01,2013-02-22 23:33:00,
2013-02-22 17:38:00,23.2,18.5,29.83,SE,139,4.0,10.0,82,0.00,,,0.00,VWS V14.01,2013-02-22 23:38:00,
2013-02-22 17:43:00,23.0,18.2,29.83,SE,141,6.0,10.0,82,0.00,,,0.00,VWS V14.01,2013-02-22 23:43:00,
2013-02-22 17:45:00,22.9,18.1,29.83,SE,140,3.0,10.0,82,0.00,,,0.00,VWS V14.01,2013-02-22 23:45:00,
2013-02-22 17:48:00,22.8,18.0,29.83,SE,146,6.0,7.0,82,0.00,,,0.00,VWS V14.01,2013-02-22 23:48:00,
2013-02-22 17:53:00,22.6,17.9,29.83,SSE,153,6.0,7.0,82,0.00,,,0.00,VWS V14.01,2013-02-22 23:53:00,
2013-02-22 17:58:00,22.2,17.5,29.83,SSE,148,3.0,8.0,82,0.00,,,0.00,VWS V14.01,2013-02-22 23:58:00,
2013-02-22 18:00:00,22.1,17.4,29.83,SE,146,3.0,8.0,82,0.00,,,0.00,VWS V14.01,2013-02-23 00:00:00,
2013-02-22 18:03:00,22.0,17.3,29.83,SE,136,6.0,8.0,82,0.00,,,0.00,VWS V14.01,2013-02-23 00:03:00,
2013-02-22 18:08:00,21.9,17.5,29.83,SSE,147,4.0,8.0,83,0.00,,,0.00,VWS V14.01,2013-02-23 00:08:00,
2013-02-22 18:13:00,21.7,17.3,29.83,SE,146,5.0,8.0,83,0.00,,,0.00,VWS V14.01,2013-02-23 00:13:00,
2013-02-22 18:15:00,21.6,17.2,29.83,SE,144,4.0,8.0,83,0.00,,,0.00,VWS V14.01,2013-02-23 00:15:00,
2013-02-22 18:18:00,21.5,17.1,29.83,SSE,147,4.0,6.0,83,0.00,,,0.00,VWS V14.01,2013-02-23 00:18:00,
2013-02-22 18:23:00,21.5,17.1,29.83,SE,136,1.0,6.0,83,0.00,,,0.00,VWS V14.01,2013-02-23 00:23:00,
2013-02-22 18:28:00,21.3,16.9,29.83,SE,124,5.0,9.0,83,0.00,,,0.00,VWS V14.01,2013-02-23 00:28:00,
2013-02-22 18:30:00,21.2,16.8,29.83,SE,133,3.0,9.0,83,0.00,,,0.00,VWS V14.01,2013-02-23 00:30:00,
2013-02-22 18:33:00,21.1,17.0,29.83,SE,134,5.0,8.0,84,0.00,,,0.00,VWS V14.01,2013-02-23 00:33:00,
2013-02-22 18:38:00,21.0,16.9,29.83,SE,142,6.0,9.0,84,0.00,,,0.00,VWS V14.01,2013-02-23 00:38:00,
2013-02-22 18:43:00,20.8,16.7,29.82,SE,138,9.0,9.0,84,0.00,,,0.00,VWS V14.01,2013-02-23 00:43:00,
2013-02-22 18:45:00,20.8,16.7,29.82,SE,142,7.0,9.0,84,0.00,,,0.00,VWS V14.01,2013-02-23 00:45:00,
2013-02-22 18:48:00,20.7,16.6,29.82,SSE,148,6.0,9.0,84,0.00,,,0.00,VWS V14.01,2013-02-23 00:48:00,
2013-02-22 18:53:00,20.5,16.4,29.82,SE,141,6.0,10.0,84,0.00,,,0.00,VWS V14.01,2013-02-23 00:53:00,
2013-02-22 18:58:00,20.3,16.2,29.82,SSE,153,5.0,10.0,84,0.00,,,0.00,VWS V14.01,2013-02-23 00:58:00,
2013-02-22 19:00:00,20.3,16.2,29.82,SSE,153,7.0,10.0,84,0.00,,,0.00,VWS V14.01,2013-02-23 01:00:00,
2013-02-22 19:03:00,20.1,16.2,29.82,SSE,154,6.0,7.0,85,0.00,,,0.00,VWS V14.01,2013-02-23 01:03:00,
2013-02-22 19:08:00,19.8,15.7,29.82,SSE,154,5.0,8.0,84,0.00,,,0.00,VWS V14.01,2013-02-23 01:08:00,
2013-02-22 19:13:00,19.4,15.3,29.82,SE,146,5.0,8.0,84,0.00,,,0.00,VWS V14.01,2013-02-23 01:13:00,
2013-02-22 19:15:00,19.3,15.5,29.82,SE,134,4.0,8.0,85,0.00,,,0.00,VWS V14.01,2013-02-23 01:15:00,
2013-02-22 19:18:00,19.3,15.5,29.82,SE,134,6.0,6.0,85,0.00,,,0.00,VWS V14.01,2013-02-23 01:18:00,
2013-02-22 19:23:00,19.2,15.4,29.82,SE,139,4.0,7.0,85,0.00,,,0.00,VWS V14.01,2013-02-23 01:23:00,
2013-02-22 19:28:00,19.0,15.2,29.82,SSE,150,4.0,7.0,85,0.00,,,0.00,VWS V14.01,2013-02-23 01:28:00,
2013-02-22 19:30:00,18.9,15.1,29.82,SSE,151,4.0,7.0,85,0.00,,,0.00,VWS V14.01,2013-02-23 01:30:00,
2013-02-22 19:33:00,18.8,15.0,29.82,SSE,150,4.0,7.0,85,0.00,,,0.00,VWS V14.01,2013-02-23 01:33:00,
2013-02-22 19:38:00,18.6,15.0,29.82,SE,146,4.0,7.0,86,0.00,,,0.00,VWS V14.01,2013-02-23 01:38:00,
2013-02-22 19:43:00,18.4,14.8,29.82,SSE,149,4.0,7.0,86,0.00,,,0.00,VWS V14.01,2013-02-23 01:43:00,
2013-02-22 19:45:00,18.3,14.7,29.82,SSE,149,4.0,7.0,86,0.00,,,0.00,VWS V14.01,2013-02-23 01:45:00,
2013-02-22 19:48:00,18.2,14.6,29.81,SSE,149,4.0,6.0,86,0.00,,,0.00,VWS V14.01,2013-02-23 01:48:00,
2013-02-22 19:53:00,18.0,14.4,29.81,SSE,155,5.0,7.0,86,0.00,,,0.00,VWS V14.01,2013-02-23 01:53:00,
2013-02-22 19:58:00,17.7,14.1,29.81,SSE,157,2.0,7.0,86,0.00,,,0.00,VWS V14.01,2013-02-23 01:58:00,
2013-02-22 20:00:00,17.7,14.1,29.81,SSE,157,2.0,7.0,86,0.00,,,0.00,VWS V14.01,2013-02-23 02:00:00,
2013-02-22 20:03:00,17.6,14.1,29.82,SSE,157,1.0,4.0,86,0.00,,,0.00,VWS V14.01,2013-02-23 02:03:00,
2013-02-22 20:08:00,17.3,13.8,29.81,SSE,157,4.0,6.0,86,0.00,,,0.00,VWS V14.01,2013-02-23 02:08:00,
2013-02-22 20:13:00,17.0,13.5,29.81,SSE,152,5.0,7.0,86,0.00,,,0.00,VWS V14.01,2013-02-23 02:13:00,
2013-02-22 20:15:00,16.8,13.3,29.81,SSE,153,5.0,7.0,86,0.00,,,0.00,VWS V14.01,2013-02-23 02:15:00,
2013-02-22 20:18:00,16.7,13.4,29.81,SSE,155,5.0,7.0,87,0.00,,,0.00,VWS V14.01,2013-02-23 02:18:00,
2013-02-22 20:23:00,16.6,13.3,29.81,SSE,157,5.0,8.0,87,0.00,,,0.00,VWS V14.01,2013-02-23 02:23:00,
2013-02-22 20:28:00,16.3,13.0,29.81,SSE,157,4.0,8.0,87,0.00,,,0.00,VWS V14.01,2013-02-23 02:28:00,
2013-02-22 20:30:00,16.1,12.8,29.81,SSE,161,6.0,8.0,87,0.00,,,0.00,VWS V14.01,2013-02-23 02:30:00,
2013-02-22 20:33:00,15.9,12.6,29.81,SSE,160,7.0,8.0,87,0.00,,,0.00,VWS V14.01,2013-02-23 02:33:00,
2013-02-22 20:38:00,15.9,12.6,29.80,SSE,155,7.0,10.0,87,0.00,,,0.00,VWS V14.01,2013-02-23 02:38:00,
2013-02-22 20:43:00,16.1,12.8,29.80,SSE,156,7.0,10.0,87,0.00,,,0.00,VWS V14.01,2013-02-23 02:43:00,
2013-02-22 20:45:00,16.3,13.3,29.80,SSE,157,8.0,11.0,88,0.00,,,0.00,VWS V14.01,2013-02-23 02:45:00,
2013-02-22 20:48:00,16.5,13.5,29.80,SSE,155,10.0,11.0,88,0.00,,,0.00,VWS V14.01,2013-02-23 02:48:00,
2013-02-22 20:53:00,16.6,13.3,29.80,SSE,160,7.0,11.0,87,0.00,,,0.00,VWS V14.01,2013-02-23 02:53:00,
2013-02-22 20:58:00,16.6,13.3,29.80,SSE,154,7.0,11.0,87,0.00,,,0.00,VWS V14.01,2013-02-23 02:58:00,
2013-02-22 21:00:00,16.6,13.3,29.80,SSE,151,6.0,11.0,87,0.00,,,0.00,VWS V14.01,2013-02-23 03:00:00,
2013-02-22 21:03:00,16.7,13.4,29.79,SE,139,7.0,9.0,87,0.00,,,0.00,VWS V14.01,2013-02-23 03:03:00,
2013-02-22 21:08:00,16.8,13.8,29.79,SSE,153,6.0,9.0,88,0.00,,,0.00,VWS V14.01,2013-02-23 03:08:00,
2013-02-22 21:13:00,16.7,13.4,29.79,SSE,149,7.0,9.0,87,0.00,,,0.00,VWS V14.01,2013-02-23 03:13:00,
2013-02-22 21:15:00,16.6,13.3,29.79,SSE,151,6.0,9.0,87,0.00,,,0.00,VWS V14.01,2013-02-23 03:15:00,
2013-02-22 21:18:00,16.6,13.3,29.79,SSE,153,6.0,8.0,87,0.00,,,0.00,VWS V14.01,2013-02-23 03:18:00,
2013-02-22 21:23:00,16.6,13.6,29.78,SE,146,7.0,12.0,88,0.00,,,0.00,VWS V14.01,2013-02-23 03:23:00,
2013-02-22 21:28:00,16.4,13.1,29.78,SSE,153,5.0,12.0,87,0.00,,,0.00,VWS V14.01,2013-02-23 03:28:00,
2013-02-22 21:30:00,16.3,13.0,29.79,SSE,155,4.0,12.0,87,0.00,,,0.00,VWS V14.01,2013-02-23 03:30:00,
2013-02-22 21:33:00,16.1,12.8,29.79,SSE,155,2.0,6.0,87,0.00,,,0.00,VWS V14.01,2013-02-23 03:33:00,
2013-02-22 21:38:00,16.0,12.7,29.78,SSE,155,1.0,6.0,87,0.00,,,0.00,VWS V14.01,2013-02-23 03:38:00,
2013-02-22 21:43:00,16.0,13.0,29.78,SSE,148,5.0,7.0,88,0.00,,,0.00,VWS V14.01,2013-02-23 03:43:00,
2013-02-22 21:45:00,16.0,13.0,29.78,SSE,154,4.0,7.0,88,0.00,,,0.00,VWS V14.01,2013-02-23 03:45:00,
2013-02-22 21:48:00,15.9,12.9,29.78,SSE,150,4.0,8.0,88,0.00,,,0.00,VWS V14.01,2013-02-23 03:48:00,
2013-02-22 21:53:00,15.8,12.8,29.78,SSE,151,7.0,8.0,88,0.00,,,0.00,VWS V14.01,2013-02-23 03:53:00,
2013-02-22 21:58:00,15.9,12.9,29.78,South,169,7.0,9.0,88,0.00,,,0.00,VWS V14.01,2013-02-23 03:58:00,
2013-02-22 22:00:00,16.0,13.0,29.78,South,171,5.0,9.0,88,0.00,,,0.00,VWS V14.01,2013-02-23 04:00:00,
2013-02-22 22:03:00,16.1,13.1,29.78,SSE,167,5.0,7.0,88,0.00,,,0.00,VWS V14.01,2013-02-23 04:03:00,
2013-02-22 22:08:00,16.1,13.1,29.77,SSE,155,3.0,7.0,88,0.00,,,0.00,VWS V14.01,2013-02-23 04:08:00,
2013-02-22 22:13:00,16.0,13.0,29.77,SSE,157,6.0,7.0,88,0.00,,,0.00,VWS V14.01,2013-02-23 04:13:00,
2013-02-22 22:15:00,15.9,12.9,29.78,SSE,157,4.0,7.0,88,0.00,,,0.00,VWS V14.01,2013-02-23 04:15:00,
2013-02-22 22:18:00,15.5,12.2,29.77,SSE,157,6.0,7.0,87,0.00,,,0.00,VWS V14.01,2013-02-23 04:18:00,
2013-02-22 22:23:00,15.5,12.5,29.77,SSE,155,8.0,8.0,88,0.00,,,0.00,VWS V14.01,2013-02-23 04:23:00,
2013-02-22 22:28:00,15.7,13.0,29.77,SSE,161,8.0,9.0,89,0.00,,,0.00,VWS V14.01,2013-02-23 04:28:00,
2013-02-22 22:30:00,15.9,13.2,29.77,South,169,7.0,10.0,89,0.00,,,0.00,VWS V14.01,2013-02-23 04:30:00,
2013-02-22 22:33:00,16.2,13.5,29.77,South,169,7.0,9.0,89,0.00,,,0.00,VWS V14.01,2013-02-23 04:33:00,
2013-02-22 22:38:00,16.8,14.1,29.77,SSE,163,10.0,10.0,89,0.00,,,0.00,VWS V14.01,2013-02-23 04:38:00,
2013-02-22 22:43:00,17.1,14.4,29.77,SSE,165,5.0,10.0,89,0.00,,,0.00,VWS V14.01,2013-02-23 04:43:00,
2013-02-22 22:45:00,17.0,14.0,29.77,SSE,164,5.0,10.0,88,0.00,,,0.00,VWS V14.01,2013-02-23 04:45:00,
2013-02-22 22:48:00,16.9,13.9,29.77,SSE,161,5.0,8.0,88,0.00,,,0.00,VWS V14.01,2013-02-23 04:48:00,
2013-02-22 22:53:00,16.8,13.8,29.77,SSE,152,4.0,8.0,88,0.00,,,0.00,VWS V14.01,2013-02-23 04:53:00,
2013-02-22 22:58:00,16.6,13.6,29.76,SSE,152,5.0,8.0,88,0.00,,,0.00,VWS V14.01,2013-02-23 04:58:00,
2013-02-22 23:00:00,16.6,13.6,29.76,SSE,153,5.0,8.0,88,0.00,,,0.00,VWS V14.01,2013-02-23 05:00:00,
2013-02-22 23:05:00,16.5,13.5,29.76,SSE,149,5.0,7.0,88,0.00,,,0.00,VWS V14.01,2013-02-23 05:05:00,
2013-02-22 23:10:00,16.6,13.6,29.76,SSE,153,5.0,7.0,88,0.00,,,0.00,VWS V14.01,2013-02-23 05:10:00,
2013-02-22 23:15:00,16.6,13.6,29.76,SSE,149,8.0,9.0,88,0.00,,,0.00,VWS V14.01,2013-02-23 05:15:00,
2013-02-22 23:20:00,16.7,13.7,29.76,SSE,147,8.0,9.0,88,0.00,,,0.00,VWS V14.01,2013-02-23 05:20:00,
2013-02-22 23:25:00,16.8,13.8,29.75,SSE,152,8.0,9.0,88,0.00,,,0.00,VWS V14.01,2013-02-23 05:25:00,
2013-02-22 23:30:00,16.7,13.7,29.75,SSE,155,6.0,9.0,88,0.00,,,0.00,VWS V14.01,2013-02-23 05:30:00,
2013-02-22 23:35:00,16.8,13.8,29.75,SSE,150,5.0,8.0,88,0.00,,,0.00,VWS V14.01,2013-02-23 05:35:00,
2013-02-22 23:40:00,16.8,13.8,29.75,SE,138,4.0,8.0,88,0.00,,,0.00,VWS V14.01,2013-02-23 05:40:00,
2013-02-22 23:45:00,16.5,13.5,29.75,SE,144,3.0,9.0,88,0.00,,,0.00,VWS V14.01,2013-02-23 05:45:00,
2013-02-22 23:50:00,16.0,12.7,29.75,SE,144,5.0,6.0,87,0.00,,,0.00,VWS V14.01,2013-02-23 05:50:00,
2013-02-22 23:55:00,15.9,12.9,29.75,SE,142,3.0,6.0,88,0.00,,,0.00,VWS V14.01,2013-02-23 05:55:00,